[[{"header":{"parameterUnit":"m.s-1","parameterCategory":1,"la1":30.2991,"la2":30.254,"lo1":-89.0895,"lo2":-89.0444,"dy":0.0017,"dx":0.0017,"nx":28,"ny":28,"refTime":"2025-08-14T09:00:00:Z","depth":0,"parameterNumber":2,"parameterNumberName":"U-component_of_WINDS"},"data":[0,0,0,0,0,0,0,0,0,0,0,0,0,0,0,0,0,0,0,0,0,0,0,0,0,0,0,0,0,0,0,0,0,0,0,0,0,0,0,0,0,0,0,0,0,0,0,0,0,0,0,0,0,0,0,0,0,0,2.2984,2.2985,0,2.3125,2.3127,2.3128,2.3115,2.3113,2.3111,2.3108,2.3254,2.326,2.3266,0,0,0,0,0,0,0,0,0,0,0,0,0,2.27,2.2706,2.2983,2.2985,2.2987,2.3125,2.3127,2.3129,2.3115,2.3113,2.311,2.3107,2.3252,2.3259,2.3266,0,0,0,0,0,0,0,0,0,0,0,0,0,2.2831,2.2707,2.2983,2.2997,2.2999,2.3124,2.3127,2.3129,2.3116,2.3113,2.3109,2.3106,2.325,2.3258,2.3267,2.3388,0,0,2.3294,2.3298,0,0,0,0,0,0,0,0,2.2823,2.2841,2.2993,2.2996,2.2999,2.3099,2.308,2.3216,2.3117,2.3072,2.3108,2.3105,2.3205,2.3217,2.3251,2.3395,2.3401,2.3295,2.33,2.3304,2.3307,0,0,0,0,0,0,0,2.2814,2.2835,2.3039,2.2995,2.2999,2.2996,2.301,2.3106,2.3155,2.3075,2.3075,2.3092,2.3206,2.3243,2.3255,2.3403,2.3295,2.3303,2.3308,2.3312,2.3651,2.3654,0,0,0,0,0,0,2.2802,2.2827,2.3035,2.3044,2.2901,2.3003,2.302,2.307,2.3154,2.3164,2.3094,2.309,2.3229,2.3244,2.326,2.3406,2.3304,2.3313,2.3318,2.3647,2.3652,2.3655,0,0,0,0,0,0,2.2796,2.2821,2.3029,2.2936,2.2962,2.3012,2.3068,2.3075,2.3111,2.3168,2.3177,2.3123,2.3227,2.3247,2.3356,2.3411,2.3317,2.3325,2.3643,2.3648,2.3654,2.3699,0,0,0,0,0,0,2.2788,2.2819,2.2865,2.2937,2.2967,2.3123,2.3072,2.308,2.3127,2.3123,2.3197,2.3206,2.3226,2.3342,2.3364,2.3421,2.3332,2.3638,2.3645,2.3652,2.3693,2.3705,2.3716,0,0,0,0,0,2.2778,2.2873,2.2868,2.2893,2.3026,2.3127,2.3144,2.3164,2.3131,2.3178,2.3214,2.3204,2.3401,2.3354,2.3378,2.3438,2.3635,2.3643,2.3651,2.3688,2.3703,2.3716,0,0,0,0,0,0,2.2807,2.2883,2.2878,2.2999,2.3056,2.3124,2.3184,2.318,2.3249,2.3242,2.3265,2.3282,2.3391,2.3425,2.3372,2.3559,2.3513,2.3527,2.3532,2.3548,2.3559,2.3549,2.3339,0,0,0,0,0,2.2828,2.2903,2.2965,2.3065,2.3094,2.3134,2.3179,2.3189,2.325,2.3274,2.3319,2.3378,2.3453,2.3502,2.3574,2.3697,2.3713,2.3751,2.3762,2.3772,2.3783,2.385,2.3867,2.3683,2.3683,2.3682,0,0,2.2871,2.2921,2.2968,2.3072,2.3118,2.3195,2.3155,2.3239,2.3296,2.3287,2.3392,2.3427,2.3494,2.361,2.3663,2.3642,2.3837,2.3782,2.3789,2.3796,2.386,2.3878,2.3893,2.3688,2.3687,2.3686,0,0,2.2989,2.3035,2.3124,2.317,2.324,2.3265,2.3286,2.3355,2.3377,2.3483,2.3478,2.3546,2.3675,2.3723,2.3764,2.3898,2.3891,2.3921,2.3982,2.4047,2.4061,2.4074,2.4122,2.4139,2.3932,2.3932,2.3932,0,2.3035,2.3151,2.317,2.3254,2.33,2.3295,2.3384,2.3428,2.3518,2.3549,2.3524,2.3685,2.373,2.3857,2.3889,2.3923,2.3947,2.3913,2.4058,2.4071,2.4083,2.4129,2.4147,2.3935,2.3935,2.3935,2.3935,0,2.3202,2.3283,2.3346,2.3432,2.3485,2.3571,2.3603,2.3654,2.3659,2.3687,2.3794,2.3848,2.393,2.3961,2.3968,2.4088,2.4073,2.4052,2.4007,2.4104,2.4147,2.4165,2.394,2.3939,2.3938,2.3937,0,0,2.3345,2.3439,2.3462,2.3501,2.3576,2.3639,2.3724,2.3804,2.3847,2.3909,2.3981,2.4089,2.407,2.4117,2.4128,2.4185,2.4287,2.4157,2.4159,2.418,2.4423,2.4438,2.4458,2.4282,2.4286,2.4288,2.4417,0,2.3471,2.3622,2.3641,2.3776,2.385,2.3845,2.3919,2.3973,2.4001,2.4068,2.4098,2.4175,2.4144,2.4172,2.4228,2.4263,2.4336,2.4254,2.4349,2.4352,2.4333,2.448,2.4497,2.4616,2.4434,2.4437,2.4439,0,2.3639,2.3704,2.3846,2.391,2.3941,2.4008,2.4082,2.4146,2.4206,2.4223,2.4274,2.4278,2.4365,2.4316,2.4436,2.438,2.442,2.4443,2.4448,2.4458,2.4402,2.4495,2.4655,2.4672,2.4466,2.4464,2.4462,0,2.3728,2.3851,2.3952,2.3985,2.4062,2.4109,2.4143,2.4201,2.4247,2.4312,2.4342,2.4416,2.4457,2.4514,2.4537,2.4499,2.4656,2.4609,2.4672,2.4671,2.4706,2.4704,2.4875,2.4731,2.4731,2.4731,2.473,0,2.3867,2.3954,2.3993,2.4055,2.4152,2.4172,2.4267,2.4299,2.435,2.4417,2.4417,2.4481,2.4508,2.4575,2.4594,2.4691,2.4709,2.4724,2.4728,2.4725,2.4723,2.4752,2.4744,2.4735,2.4734,2.4733,2.4733,0,2.3984,2.4014,2.4123,2.4186,2.4204,2.4273,2.4327,2.4386,2.4413,2.4498,2.4519,2.4561,2.464,2.4669,2.4766,2.4778,2.489,2.4887,2.487,2.4871,2.4932,2.4926,2.5128,2.5156,2.4994,2.4995,2.4996,0,2.4071,2.4137,2.4208,2.4253,2.4289,2.4361,2.4408,2.443,2.4479,2.4552,2.4603,2.4681,2.4745,2.4872,2.4911,2.4984,2.4983,2.5049,2.4994,2.4988,2.4984,2.498,2.4986,2.5059,2.5061,2.5062,2.5063,0,2.4222,2.4233,2.4301,2.4374,2.443,2.4488,2.4545,2.4582,2.4612,2.4666,2.4747,2.4797,2.4894,2.4972,2.5047,2.5082,2.5078,2.508,2.5098,2.5096,2.5083,2.509,2.4897,2.5075,2.5074,2.5073,2.5073,2.5072,2.4327,2.4385,2.4443,2.4519,2.4563,2.4616,2.4674,2.4708,2.4775,2.4856,2.4865,2.4951,2.5009,2.5109,2.5147,2.5214,2.5197,2.5223,2.523,2.5237,2.5241,2.5071,2.5228,2.5228,2.5227,2.5227,2.5227,0,2.4478,2.4514,2.4583,2.4662,2.4721,2.4711,2.4773,2.4823,2.4899,2.4952,2.5015,2.5107,2.5182,2.5226,2.5301,2.5346,2.5346,2.5365,2.5363,2.5371,2.5253,2.5229,2.5364,2.5364,2.5364,2.5364,2.5364,2.5364,2.4563,2.4662,2.4679,2.4799,2.4835,2.492,2.4956,2.5004,2.5047,2.5149,2.5211,2.5239,2.5289,2.5367,2.5435,2.5446,2.5473,2.5494,2.5503,2.5393,2.5379,2.5366,2.5344,2.55,2.55,2.5615,2.5616,2.5617]},{"header":{"parameterUnit":"m.s-1","parameterCategory":1,"la1":30.2991,"la2":30.254,"lo1":-89.0895,"lo2":-89.0444,"dy":0.0017,"dx":0.0017,"nx":28,"ny":28,"refTime":"2025-08-14T09:00:00:Z","depth":0,"parameterNumber":3,"parameterNumberName":"V-component_of_WINDS"},"data":[0,0,0,0,0,0,0,0,0,0,0,0,0,0,0,0,0,0,0,0,0,0,0,0,0,0,0,0,0,0,0,0,0,0,0,0,0,0,0,0,0,0,0,0,0,0,0,0,0,0,0,0,0,0,0,0,0,0,4.6066,4.6067,0,4.6158,4.6159,4.616,4.6119,4.6116,4.6114,4.6112,4.6199,4.6204,4.6208,0,0,0,0,0,0,0,0,0,0,0,0,0,4.5846,4.585,4.6066,4.6067,4.6068,4.6158,4.6159,4.616,4.6119,4.6116,4.6113,4.6111,4.6198,4.6203,4.6208,0,0,0,0,0,0,0,0,0,0,0,0,0,4.594,4.5852,4.6065,4.6058,4.6059,4.6157,4.6159,4.616,4.612,4.6116,4.6113,4.611,4.6196,4.6203,4.6209,4.6318,0,0,4.6229,4.6232,0,0,0,0,0,0,0,0,4.5935,4.5948,4.6058,4.6059,4.606,4.6123,4.6113,4.6213,4.612,4.6096,4.6112,4.6108,4.6176,4.6184,4.6209,4.6322,4.6326,4.623,4.6234,4.6237,4.6239,0,0,0,0,0,0,0,4.5928,4.5944,4.6102,4.606,4.6061,4.6048,4.6058,4.6132,4.6154,4.6098,4.6095,4.6107,4.6176,4.6203,4.6211,4.6327,4.623,4.6236,4.624,4.6242,4.6531,4.6535,0,0,0,0,0,0,4.5923,4.5939,4.6099,4.6105,4.5988,4.6055,4.6065,4.6106,4.6153,4.6157,4.611,4.6105,4.6193,4.6203,4.6213,4.6343,4.6237,4.6243,4.6247,4.6528,4.6532,4.6536,0,0,0,0,0,0,4.5918,4.5938,4.6095,4.6021,4.604,4.6062,4.6108,4.611,4.6136,4.6162,4.6165,4.6134,4.6191,4.6204,4.6292,4.6345,4.6246,4.6252,4.6523,4.6529,4.6534,4.6603,0,0,0,0,0,0,4.5912,4.5936,4.598,4.6022,4.6044,4.6175,4.6111,4.6114,4.6149,4.6143,4.6185,4.6189,4.6189,4.6282,4.6299,4.6353,4.6257,4.6518,4.6526,4.6532,4.6596,4.661,4.6623,0,0,0,0,0,4.5904,4.5995,4.5982,4.6002,4.61,4.6178,4.6191,4.6191,4.6153,4.6196,4.6212,4.6187,4.6337,4.6292,4.631,4.6367,4.6515,4.6524,4.6532,4.659,4.6608,4.6622,0,0,0,0,0,0,4.5956,4.6,4.5987,4.6094,4.6133,4.6171,4.6225,4.6209,4.6258,4.625,4.6246,4.6256,4.6347,4.6365,4.6315,4.6473,4.642,4.6432,4.6458,4.6475,4.6488,4.6481,4.6263,0,0,0,0,0,4.598,4.6043,4.6077,4.6168,4.6188,4.6204,4.6238,4.6235,4.6274,4.6289,4.6312,4.6349,4.6404,4.644,4.6492,4.6598,4.6606,4.6646,4.6659,4.667,4.668,4.6736,4.6754,4.6563,4.6563,4.6563,0,0,4.603,4.6062,4.6101,4.6179,4.6209,4.6271,4.6218,4.6286,4.6332,4.6299,4.6384,4.6402,4.6442,4.654,4.6583,4.6557,4.6734,4.668,4.6688,4.6693,4.6746,4.6764,4.678,4.6569,4.6568,4.6567,0,0,4.6152,4.6184,4.6263,4.6294,4.634,4.6349,4.6368,4.6409,4.642,4.6506,4.6482,4.6534,4.663,4.6659,4.6687,4.6819,4.6797,4.6836,4.6904,4.6959,4.6974,4.6987,4.7033,4.705,4.6846,4.6846,4.6846,0,4.6208,4.6304,4.6304,4.6375,4.6409,4.6384,4.6462,4.6491,4.6551,4.6574,4.6544,4.6663,4.6688,4.6791,4.6824,4.6847,4.6866,4.6831,4.6972,4.6985,4.6997,4.7041,4.7059,4.6851,4.685,4.685,4.6849,0,4.6369,4.6436,4.6493,4.6554,4.6594,4.6668,4.6677,4.6717,4.671,4.6721,4.6807,4.6837,4.6894,4.6918,4.6911,4.7019,4.7002,4.6972,4.6919,4.702,4.7061,4.7078,4.6857,4.6855,4.6854,4.6853,0,0,4.6528,4.6588,4.6609,4.6636,4.6684,4.6734,4.6805,4.6863,4.6897,4.6938,4.6997,4.7077,4.705,4.7081,4.7076,4.7124,4.7225,4.7088,4.7089,4.7112,4.7345,4.7367,4.7387,4.7211,4.7214,4.7217,4.7341,0,4.6654,4.6783,4.6784,4.6901,4.6961,4.6937,4.6999,4.7033,4.7046,4.7096,4.7108,4.7165,4.7125,4.7143,4.7189,4.7204,4.7272,4.7194,4.7263,4.7266,4.7254,4.7409,4.7433,4.7549,4.7358,4.736,4.7362,0,4.6819,4.6868,4.6992,4.703,4.7056,4.7112,4.7164,4.7213,4.7251,4.7256,4.729,4.7278,4.7347,4.7292,4.7386,4.7333,4.7361,4.7372,4.7376,4.7383,4.732,4.7419,4.7586,4.7603,4.7388,4.7386,4.7384,0,4.6922,4.7018,4.7105,4.7128,4.7176,4.7215,4.7236,4.7271,4.7305,4.7349,4.7371,4.7422,4.745,4.7488,4.7489,4.7449,4.7584,4.7528,4.7588,4.7588,4.7618,4.7616,4.7792,4.7636,4.7636,4.7636,4.7635,0,4.7063,4.7139,4.7152,4.7205,4.7288,4.7287,4.7369,4.7386,4.7417,4.747,4.7451,4.7501,4.75,4.755,4.755,4.7627,4.764,4.7644,4.7644,4.7646,4.7646,4.7665,4.7656,4.764,4.7639,4.7639,4.7638,0,4.7193,4.7204,4.7296,4.7334,4.7345,4.7404,4.7435,4.7484,4.7493,4.7561,4.7577,4.7592,4.7649,4.7654,4.772,4.772,4.7814,4.7804,4.7802,4.78,4.786,4.7854,4.8054,4.8079,4.7907,4.7909,4.791,0,4.7282,4.734,4.7384,4.742,4.7444,4.7501,4.7536,4.7536,4.7573,4.762,4.7662,4.7719,4.7764,4.7856,4.7871,4.7921,4.7912,4.7979,4.792,4.792,4.7912,4.7909,4.7914,4.799,4.7992,4.7994,4.7995,0,4.7439,4.7441,4.7494,4.7549,4.7592,4.7634,4.7673,4.7702,4.7707,4.7749,4.7809,4.7844,4.7912,4.7967,4.8016,4.8034,4.8015,4.8013,4.803,4.8033,4.8029,4.8032,4.7833,4.8009,4.8008,4.8007,4.8006,4.8005,4.7551,4.7601,4.764,4.7698,4.7728,4.7765,4.7813,4.7829,4.788,4.7937,4.7933,4.7999,4.8032,4.8096,4.8118,4.8167,4.8144,4.8168,4.8174,4.818,4.8186,4.8022,4.8176,4.8175,4.8175,4.8175,4.8174,0,4.7706,4.773,4.7784,4.784,4.7886,4.7866,4.7907,4.7946,4.8005,4.8039,4.8084,4.8152,4.8205,4.8224,4.8274,4.831,4.8303,4.8324,4.8321,4.8325,4.8204,4.8184,4.8329,4.8329,4.8329,4.8329,4.8329,4.8329,4.7792,4.7876,4.7883,4.798,4.8002,4.8069,4.8094,4.8127,4.8154,4.8231,4.8276,4.8289,4.8316,4.8368,4.8415,4.8419,4.8438,4.8463,4.8463,4.8349,4.8334,4.8319,4.8301,4.8467,4.8467,4.858,4.8581,4.8581]}]]